"startDT [UTC]","vpos","CH4 [ppm]","stdev(CH4) [ppm]","CO2 [ppm]","stdev(CO2) [ppm]","H2O [ppm]","stdev(H2O)","p_LGR [torr]","T_LGR [C]","mt1_LGR [us]","mt2_LGR [us]","T_ECpre [C]","T_EC1 [C]","T_EC2 [C]","p_inlet [hPa]","p_in [hPa]","p_out [hPa]","T_inlet [C]","RH_inlet [%]","dwpt_inlet [C]","T_vent [C]","RH_vent [%]","dwpt_vent [C]","flow_vent [l min-1]","flow_inlet [l min-1]","dwpt_sample [C]","T_room [C]"
2012-11-10 00:00:00,0.0,1.9078,0.0009,399.85,0.21,188.5,30.9,138.05,31.39,24.65,36.42,0.04,-272.75,-272.75,-43,565,-954,24.7,4.4,-19.0,25.0,4.4,-18.8,5.73,2.44,-23.9,29.8
2012-11-10 00:01:00,0.0,1.9080,0.0009,399.82,0.24,187.2,30.3,138.05,31.40,24.65,36.43,0.04,-272.74,-272.75,-43,565,-954,24.7,4.4,-19.1,24.9,4.4,-18.9,5.73,2.43,-23.8,29.8
2012-11-10 00:02:00,0.0,1.9082,0.0008,399.89,0.24,189.3,31.7,138.05,31.40,24.65,36.43,0.04,-272.75,-272.75,-43,565,-954,24.7,4.3,-19.1,24.9,4.4,-18.9,5.73,2.43,-23.8,29.9
2012-11-10 00:03:00,0.0,1.9080,0.0009,399.97,0.20,193.5,30.5,138.05,31.41,24.65,36.42,0.04,-272.75,-272.75,-43,565,-954,24.7,4.4,-19.0,25.0,4.4,-18.8,5.73,2.43,-23.8,29.9
2012-11-10 00:04:00,0.0,1.9079,0.0008,399.85,0.24,197.6,32.4,138.05,31.41,24.65,36.43,0.04,-272.75,-272.75,-43,565,-954,24.7,4.4,-19.0,25.0,4.4,-18.7,5.73,2.43,-23.7,30.0
2012-11-10 00:05:00,0.0,1.9081,0.0009,399.87,0.22,201.3,30.7,138.04,31.42,24.66,36.43,0.04,-272.75,-272.75,-43,565,-954,24.8,4.4,-19.1,25.0,4.4,-18.8,5.73,2.43,-23.7,29.9
2012-11-10 00:06:00,0.0,1.9082,0.0010,399.88,0.20,195.0,31.2,138.04,31.42,24.65,36.43,0.04,-272.75,-272.75,-43,565,-954,24.8,4.3,-19.1,25.0,4.4,-18.8,5.73,2.43,-23.7,29.9
2012-11-10 00:07:00,0.0,1.9082,0.0009,399.82,0.23,199.3,30.7,138.05,31.43,24.65,36.43,0.04,-272.75,-272.75,-43,565,-954,24.8,4.3,-19.1,25.0,4.4,-18.9,5.73,2.44,-23.7,29.9
2012-11-10 00:08:00,0.0,1.9082,0.0008,399.96,0.20,197.6,30.6,138.05,31.43,24.65,36.42,0.04,-272.75,-272.74,-43,565,-954,24.8,4.3,-19.3,25.0,4.3,-19.0,5.73,2.45,-23.7,29.9
2012-11-10 00:09:00,0.0,1.9077,0.0009,399.87,0.22,200.4,33.9,138.05,31.43,24.66,36.43,0.04,-272.75,-272.75,-43,566,-954,24.8,4.2,-19.5,25.0,4.3,-19.1,5.73,2.45,-23.7,29.9
2012-11-10 00:10:00,0.0,1.9084,0.0008,399.88,0.21,193.6,32.3,138.05,31.42,24.65,36.42,0.04,-272.75,-272.75,-43,566,-954,24.8,4.2,-19.6,25.0,4.2,-19.3,5.73,2.44,-23.7,29.9
2012-11-10 00:11:00,0.0,1.9079,0.0010,399.87,0.20,200.9,28.8,138.05,31.42,24.66,36.42,0.04,-272.75,-272.75,-43,566,-954,24.8,4.2,-19.4,25.0,4.3,-19.1,5.73,2.43,-23.7,29.9
2012-11-10 00:12:00,0.0,1.9074,0.0009,399.77,0.21,195.1,33.5,138.06,31.42,24.66,36.43,0.04,-272.74,-272.75,-43,566,-954,24.8,4.3,-19.3,25.0,4.3,-18.9,5.73,2.43,-23.8,29.9
2012-11-10 00:13:00,0.0,1.9079,0.0010,399.85,0.26,196.8,33.0,138.06,31.41,24.65,36.42,0.04,-272.75,-272.75,-43,566,-954,24.8,4.3,-19.1,25.0,4.4,-18.9,5.73,2.42,-23.8,29.9
2012-11-10 00:14:00,0.0,1.9081,0.0009,399.84,0.17,191.9,28.7,138.06,31.41,24.65,36.42,0.04,-272.75,-272.75,-43,566,-954,24.8,4.3,-19.2,25.0,4.3,-18.9,5.73,2.42,-23.8,29.8
2012-11-10 00:15:00,0.0,1.9081,0.0010,399.76,0.25,195.3,35.8,138.06,31.40,24.65,36.42,0.04,-272.74,-272.75,-43,566,-954,24.8,4.3,-19.3,25.0,4.3,-19.0,5.73,2.42,-23.8,29.8
2012-11-10 00:16:00,0.0,1.9080,0.0009,399.79,0.20,189.9,27.1,138.06,31.40,24.65,36.42,0.04,-272.75,-272.75,-43,566,-954,24.7,4.3,-19.2,25.0,4.4,-18.9,5.73,2.43,-23.8,29.8
2012-11-10 00:17:00,0.0,1.9074,0.0010,399.76,0.23,190.7,29.0,138.06,31.40,24.65,36.42,0.04,-272.75,-272.75,-43,566,-954,24.7,4.4,-19.0,25.0,4.4,-18.8,5.73,2.43,-23.9,29.8
2012-11-10 00:18:00,0.0,1.9074,0.0011,399.73,0.20,187.0,26.6,138.05,31.40,24.65,36.42,0.04,-272.74,-272.75,-43,566,-954,24.7,4.4,-19.0,25.0,4.4,-18.7,5.73,2.44,-23.9,29.8
2012-11-10 00:19:00,0.0,1.9076,0.0009,399.70,0.20,183.6,31.2,138.05,31.40,24.65,36.43,0.04,-272.75,-272.75,-43,566,-954,24.7,4.5,-18.8,25.0,4.5,-18.5,5.73,2.44,-23.9,29.8
2012-11-10 00:20:00,0.0,1.9072,0.0008,399.76,0.23,190.9,29.5,138.05,31.40,24.65,36.43,0.04,-272.75,-272.75,-43,566,-954,24.7,4.4,-18.9,24.9,4.5,-18.6,5.73,2.44,-23.9,29.8
2012-11-10 00:21:00,0.0,1.9071,0.0011,399.78,0.17,190.2,32.9,138.05,31.40,24.65,36.43,0.04,-272.75,-272.75,-43,566,-954,24.7,4.4,-19.1,24.9,4.4,-18.8,5.73,2.45,-23.9,29.8
2012-11-10 00:22:00,0.0,1.9072,0.0010,399.77,0.22,195.9,30.4,138.06,31.40,24.65,36.42,0.04,-272.75,-272.74,-43,566,-954,24.7,4.3,-19.1,24.9,4.4,-18.9,5.73,2.45,-23.9,29.7
2012-11-10 00:23:00,0.0,1.9070,0.0010,399.69,0.24,193.0,31.5,138.06,31.39,24.65,36.43,0.04,-272.75,-272.75,-43,566,-954,24.7,4.3,-19.2,24.9,4.4,-18.9,5.73,2.45,-23.9,29.7
2012-11-10 00:24:00,0.0,1.9068,0.0008,399.79,0.17,188.3,30.1,138.06,31.39,24.65,36.42,0.04,-272.75,-272.75,-43,566,-954,24.6,4.3,-19.3,25.0,4.3,-19.0,5.73,2.45,-23.9,29.7
2012-11-10 00:25:00,0.0,1.9073,0.0009,399.68,0.22,188.2,22.5,138.05,31.39,24.65,36.43,0.04,-272.74,-272.75,-43,566,-954,24.7,4.3,-19.2,24.9,4.3,-19.0,5.73,2.45,-23.9,29.7
2012-11-10 00:26:00,0.0,1.9071,0.0010,399.79,0.21,185.1,30.5,138.05,31.39,24.65,36.42,0.04,-272.75,-272.75,-43,566,-954,24.6,4.3,-19.2,24.9,4.3,-19.0,5.73,2.44,-23.9,29.8
2012-11-10 00:27:00,0.0,1.9071,0.0008,399.75,0.21,183.1,30.7,138.05,31.39,24.65,36.43,0.04,-272.75,-272.75,-43,565,-954,24.6,4.3,-19.2,24.9,4.4,-19.0,5.73,2.43,-23.9,29.7
2012-11-10 00:28:00,0.0,1.9074,0.0009,399.93,0.21,197.8,29.8,138.05,31.40,24.65,36.42,0.04,-272.74,-272.75,-43,565,-954,24.6,4.3,-19.2,24.9,4.3,-19.0,5.73,2.42,-23.9,29.8
2012-11-10 00:29:00,0.0,1.9076,0.0010,399.70,0.22,187.0,31.1,138.05,31.40,24.65,36.44,0.04,-272.75,-272.74,-43,565,-954,24.7,4.3,-19.4,24.9,4.3,-19.1,5.73,2.42,-23.8,29.8
2012-11-10 00:30:00,0.0,1.9072,0.0009,399.78,0.24,190.9,32.5,138.05,31.41,24.65,36.43,0.04,-272.75,-272.75,-43,565,-954,24.7,4.3,-19.2,25.0,4.4,-18.9,5.73,2.42,-23.7,29.8
2012-11-10 00:31:00,0.0,1.9075,0.0010,399.85,0.19,199.3,30.6,138.04,31.41,24.65,36.43,0.04,-272.75,-272.75,-43,565,-954,24.7,4.3,-19.3,25.0,4.4,-18.9,5.73,2.42,-23.7,29.9
2012-11-10 00:32:00,0.0,1.9075,0.0009,399.85,0.23,203.1,30.7,138.04,31.42,24.65,36.43,0.04,-272.75,-272.75,-43,565,-954,24.7,4.3,-19.3,25.0,4.3,-19.0,5.73,2.43,-23.6,30.0
2012-11-10 00:33:00,0.0,1.9068,0.0008,399.80,0.18,207.2,29.1,138.04,31.42,24.65,36.43,0.04,-272.75,-272.75,-43,565,-954,24.8,4.3,-19.3,25.0,4.3,-19.0,5.73,2.43,-23.6,30.0
2012-11-10 00:34:00,0.0,1.9075,0.0008,399.83,0.23,198.2,28.3,138.04,31.43,24.65,36.43,0.04,-272.75,-272.75,-43,565,-954,24.8,4.3,-19.3,25.0,4.3,-19.0,5.73,2.44,-23.6,30.0
2012-11-10 00:35:00,0.0,1.9071,0.0009,399.95,0.24,211.9,32.7,138.04,31.44,24.65,36.42,0.04,-272.75,-272.75,-43,565,-954,24.8,4.3,-19.2,25.0,4.4,-18.8,5.73,2.44,-23.6,30.0
2012-11-10 00:36:00,0.0,1.9072,0.0011,399.94,0.24,206.1,29.2,138.04,31.44,24.65,36.42,0.04,-272.75,-272.75,-43,565,-954,24.8,4.3,-19.1,25.0,4.4,-18.8,5.73,2.43,-23.6,30.0
2012-11-10 00:37:00,0.0,1.9072,0.0011,399.80,0.20,199.1,33.2,138.05,31.44,24.65,36.43,0.04,-272.75,-272.75,-43,566,-954,24.8,4.3,-19.1,25.1,4.4,-18.8,5.73,2.43,-23.6,30.0
2012-11-10 00:38:00,0.0,1.9066,0.0009,399.74,0.22,198.5,33.4,138.05,31.44,24.66,36.43,0.04,-272.75,-272.75,-43,566,-954,24.8,4.3,-19.0,25.0,4.4,-18.8,5.73,2.43,-23.6,30.0
2012-11-10 00:39:00,0.0,1.9069,0.0010,399.86,0.29,200.8,28.0,138.05,31.44,24.65,36.42,0.04,-272.74,-272.75,-43,566,-954,24.8,4.3,-19.3,25.0,4.3,-18.9,5.73,2.44,-23.6,29.9
2012-11-10 00:40:00,0.0,1.9078,0.0011,399.88,0.19,202.0,29.8,138.05,31.44,24.65,36.43,0.04,-272.75,-272.75,-43,566,-955,24.8,4.2,-19.5,25.0,4.2,-19.2,5.73,2.45,-23.6,29.9
2012-11-10 00:41:00,0.0,1.9098,0.0012,400.01,0.21,203.0,31.1,138.06,31.43,24.65,36.42,0.04,-272.75,-272.75,-43,566,-954,24.8,4.0,-19.9,25.0,4.1,-19.6,5.73,2.46,-23.7,29.9
2012-11-10 00:42:00,0.0,1.9095,0.0017,400.00,0.19,196.5,29.3,138.06,31.43,24.65,36.42,0.04,-272.74,-272.74,-43,566,-955,24.8,3.9,-20.2,25.0,4.0,-20.0,5.73,2.46,-23.7,29.9
2012-11-10 00:43:00,0.0,1.9089,0.0011,399.99,0.19,198.0,32.3,138.06,31.42,24.66,36.42,0.04,-272.74,-272.75,-43,566,-954,24.8,3.9,-20.3,25.0,3.9,-20.0,5.73,2.46,-23.7,29.9
2012-11-10 00:44:00,0.0,1.9104,0.0009,399.85,0.20,196.7,35.1,138.06,31.41,24.66,36.43,0.04,-272.75,-272.75,-43,566,-954,24.8,3.9,-20.2,25.0,3.9,-20.0,5.73,2.44,-23.7,29.9
2012-11-10 00:45:00,0.0,1.9107,0.0010,399.85,0.21,200.1,31.4,138.06,31.40,24.66,36.43,0.04,-272.75,-272.75,-43,566,-954,24.8,3.9,-20.2,25.0,4.0,-19.9,5.73,2.44,-23.7,29.9
2012-11-10 00:46:00,0.0,1.9111,0.0010,399.90,0.19,204.1,31.0,138.06,31.40,24.66,36.42,0.04,-272.75,-272.75,-43,566,-955,24.8,3.9,-20.2,25.0,4.0,-19.9,5.73,2.43,-23.8,29.8
2012-11-10 00:47:00,0.0,1.9110,0.0010,399.89,0.21,207.2,30.9,138.06,31.39,24.66,36.42,0.04,-272.75,-272.75,-43,566,-954,24.7,3.9,-20.3,25.0,3.9,-20.0,5.73,2.42,-23.8,29.8
2012-11-10 00:48:00,0.0,1.9114,0.0009,399.92,0.25,195.8,31.1,138.06,31.39,24.65,36.42,0.04,-272.75,-272.75,-43,566,-954,24.7,3.9,-20.3,25.0,3.9,-20.0,5.73,2.42,-23.8,29.8
2012-11-10 00:49:00,0.0,1.9109,0.0007,399.96,0.20,201.5,32.7,138.06,31.39,24.65,36.42,0.04,-272.75,-272.75,-43,566,-954,24.7,3.9,-20.4,25.0,3.9,-20.1,5.73,2.43,-23.8,29.8
2012-11-10 00:50:00,0.0,1.9112,0.0011,399.95,0.19,194.1,27.0,138.06,31.39,24.66,36.42,0.04,-272.75,-272.75,-43,566,-954,24.7,3.9,-20.4,25.0,3.9,-20.1,5.73,2.44,-23.8,29.8
2012-11-10 00:51:00,0.0,1.9124,0.0008,399.99,0.24,188.3,30.4,138.05,31.39,24.65,36.43,0.04,-272.75,-272.75,-43,566,-954,24.7,3.9,-20.5,25.0,3.9,-20.2,5.73,2.44,-23.8,29.9
2012-11-10 00:52:00,0.0,1.9112,0.0012,400.01,0.23,191.3,26.8,138.05,31.39,24.66,36.42,0.04,-272.74,-272.74,-43,566,-954,24.7,3.9,-20.5,25.0,3.9,-20.1,5.73,2.45,-23.8,29.9
2012-11-10 00:53:00,0.0,1.9139,0.0011,400.22,0.21,191.6,28.8,138.05,31.40,24.65,36.42,0.04,-272.75,-272.75,-43,566,-954,24.7,3.9,-20.4,25.0,3.9,-20.2,5.73,2.45,-23.7,29.9
2012-11-10 00:54:00,0.0,1.9135,0.0010,400.19,0.19,195.7,32.3,138.05,31.40,24.65,36.42,0.04,-272.75,-272.75,-43,566,-954,24.8,3.9,-20.3,25.0,3.9,-20.0,5.73,2.44,-23.6,30.0
2012-11-10 00:55:00,0.0,1.9134,0.0008,400.19,0.18,195.9,29.4,138.05,31.41,24.65,36.42,0.04,-272.74,-272.75,-43,566,-954,24.8,3.9,-20.3,25.0,3.9,-20.0,5.73,2.45,-23.6,30.1
2012-11-10 00:56:00,0.0,1.9128,0.0010,400.28,0.25,209.4,29.1,138.04,31.41,24.66,36.42,0.04,-272.74,-272.75,-43,566,-954,24.9,3.9,-20.2,25.1,4.0,-19.9,5.73,2.44,-23.5,30.1
2012-11-10 00:57:00,0.0,1.9124,0.0010,400.16,0.22,212.2,30.3,138.04,31.42,24.66,36.43,0.04,-272.75,-272.75,-43,566,-954,24.9,3.9,-20.2,25.1,4.0,-19.9,5.73,2.44,-23.5,30.1
2012-11-10 00:58:00,0.0,1.9121,0.0008,400.20,0.20,208.7,31.7,138.04,31.43,24.66,36.42,0.04,-272.75,-272.75,-43,566,-954,24.9,4.0,-20.1,25.1,4.0,-19.8,5.73,2.43,-23.5,30.1
2012-11-10 00:59:00,0.0,1.9122,0.0007,400.21,0.21,215.9,31.0,138.04,31.43,24.65,36.42,0.04,-272.74,-272.74,-43,566,-955,24.9,4.0,-20.0,25.1,4.0,-19.7,5.73,2.44,-23.5,30.1
2012-11-10 01:00:00,0.0,1.9118,0.0009,400.17,0.21,215.9,29.4,138.04,31.44,24.66,36.42,0.04,-272.75,-272.75,-43,566,-955,24.9,4.0,-19.9,25.1,4.1,-19.6,5.73,2.43,-23.5,30.1
2012-11-10 01:01:00,0.0,1.9112,0.0010,400.16,0.22,208.5,31.9,138.04,31.44,24.66,36.42,0.04,-272.75,-272.75,-43,566,-955,24.9,4.0,-19.8,25.1,4.1,-19.5,5.73,2.44,-23.5,30.1
2012-11-10 01:02:00,0.0,1.9115,0.0011,400.06,0.24,206.6,32.0,138.05,31.43,24.65,36.42,0.04,-272.74,-272.75,-43,566,-955,24.9,4.1,-19.7,25.1,4.1,-19.4,5.73,2.43,-23.5,30.1
2012-11-10 01:03:00,0.0,1.9109,0.0008,400.09,0.19,205.5,31.0,138.05,31.43,24.66,36.42,0.04,-272.75,-272.75,-43,566,-954,24.9,4.1,-19.7,25.1,4.2,-19.4,5.73,2.42,-23.6,30.1
2012-11-10 01:04:00,0.0,1.9109,0.0008,400.04,0.21,207.5,27.6,138.05,31.43,24.65,36.42,0.04,-272.75,-272.75,-43,566,-954,24.9,4.1,-19.6,25.1,4.2,-19.3,5.73,2.42,-23.6,30.0
2012-11-10 01:05:00,0.0,1.9109,0.0011,400.00,0.22,200.9,28.7,138.06,31.42,24.65,36.42,0.04,-272.75,-272.74,-43,566,-955,24.9,4.2,-19.5,25.1,4.2,-19.2,5.73,2.41,-23.6,30.0
2012-11-10 01:06:00,0.0,1.9101,0.0009,400.01,0.22,201.5,28.0,138.06,31.42,24.66,36.42,0.04,-272.74,-272.75,-43,566,-955,24.9,4.2,-19.5,25.1,4.2,-19.2,5.73,2.42,-23.6,30.0
2012-11-10 01:07:00,0.0,1.9098,0.0012,399.91,0.23,199.7,31.7,138.06,31.41,24.66,36.42,0.04,-272.75,-272.75,-43,566,-954,24.9,4.2,-19.4,25.1,4.2,-19.1,5.73,2.43,-23.7,30.0
2012-11-10 01:08:00,0.0,1.9102,0.0010,399.79,0.32,200.7,30.4,138.06,31.40,24.65,36.43,0.04,-272.75,-272.75,-43,566,-954,24.8,4.2,-19.3,25.1,4.3,-19.0,5.73,2.44,-23.7,30.0
2012-11-10 01:09:00,0.0,1.9096,0.0008,399.90,0.24,204.8,32.4,138.06,31.39,24.66,36.42,0.04,-272.74,-272.75,-43,566,-954,24.8,4.3,-19.3,25.1,4.3,-19.0,5.73,2.45,-23.7,29.9
2012-11-10 01:10:00,0.0,1.9102,0.0008,399.88,0.23,199.5,28.7,138.06,31.38,24.65,36.42,0.04,-272.75,-272.75,-43,566,-954,24.8,4.3,-19.2,25.0,4.3,-19.0,5.73,2.46,-23.7,29.9
2012-11-10 01:11:00,0.0,1.9104,0.0009,399.90,0.25,205.1,29.9,138.06,31.38,24.66,36.42,0.04,-272.75,-272.75,-43,567,-954,24.8,4.3,-19.3,25.0,4.3,-19.0,5.73,2.46,-23.8,29.9
2012-11-10 01:12:00,0.0,1.9105,0.0008,399.93,0.18,198.9,29.0,138.06,31.37,24.65,36.42,0.04,-272.75,-272.75,-43,566,-954,24.8,4.2,-19.4,25.0,4.3,-19.1,5.73,2.46,-23.8,29.8
2012-11-10 01:13:00,0.0,1.9099,0.0009,399.87,0.20,204.3,29.6,138.06,31.37,24.66,36.42,0.04,-272.75,-272.75,-43,566,-954,24.8,4.2,-19.4,25.0,4.3,-19.1,5.73,2.45,-23.8,29.8
2012-11-10 01:14:00,0.0,1.9097,0.0009,399.78,0.21,198.1,37.5,138.06,31.37,24.65,36.43,0.04,-272.75,-272.75,-43,566,-954,24.8,4.2,-19.3,25.0,4.3,-19.1,5.73,2.44,-23.8,29.8
2012-11-10 01:15:00,0.0,1.9092,0.0011,399.83,0.22,202.0,27.7,138.06,31.37,24.66,36.43,0.04,-272.75,-272.75,-43,566,-954,24.8,4.3,-19.3,25.0,4.3,-19.1,5.73,2.44,-23.8,29.9
2012-11-10 01:16:00,0.0,1.9094,0.0011,399.88,0.20,194.6,34.1,138.06,31.37,24.66,36.42,0.04,-272.75,-272.75,-43,566,-954,24.8,4.3,-19.3,25.0,4.3,-19.0,5.73,2.44,-23.8,29.9
2012-11-10 01:17:00,0.0,1.9100,0.0009,399.82,0.21,195.7,32.5,138.05,31.37,24.65,36.43,0.04,-272.75,-272.75,-43,566,-954,24.8,4.3,-19.3,25.0,4.3,-19.1,5.73,2.43,-23.8,30.0
2012-11-10 01:18:00,0.0,1.9103,0.0009,400.04,0.22,201.8,30.7,138.05,31.37,24.66,36.42,0.04,-272.75,-272.75,-43,566,-954,24.8,4.2,-19.4,25.1,4.3,-19.1,5.73,2.42,-23.7,30.0
2012-11-10 01:19:00,0.0,1.9106,0.0009,400.10,0.23,207.0,30.9,138.05,31.38,24.65,36.42,0.04,-272.75,-272.74,-43,566,-954,24.9,4.2,-19.5,25.1,4.2,-19.2,5.73,2.42,-23.6,30.0
2012-11-10 01:20:00,0.0,1.9103,0.0009,400.03,0.24,214.7,32.8,138.05,31.39,24.65,36.43,0.04,-272.75,-272.75,-43,566,-954,24.9,4.1,-19.6,25.1,4.2,-19.3,5.73,2.42,-23.6,30.1
2012-11-10 01:21:00,0.0,1.9102,0.0008,400.08,0.20,211.7,32.2,138.05,31.39,24.65,36.43,0.04,-272.75,-272.75,-43,566,-954,24.9,4.1,-19.6,25.1,4.2,-19.3,5.73,2.42,-23.5,30.1
2012-11-10 01:22:00,0.0,1.9103,0.0010,400.15,0.23,206.7,28.1,138.04,31.40,24.65,36.42,0.04,-272.74,-272.75,-43,566,-954,24.9,4.1,-19.5,25.1,4.2,-19.3,5.73,2.43,-23.4,30.2
2012-11-10 01:23:00,0.0,1.9094,0.0011,400.08,0.21,214.8,30.7,138.04,31.41,24.65,36.42,0.04,-272.75,-272.75,-43,566,-954,25.0,4.1,-19.5,25.1,4.2,-19.2,5.73,2.43,-23.4,30.2
2012-11-10 01:24:00,0.0,1.9096,0.0009,400.07,0.22,212.3,34.8,138.04,31.42,24.65,36.42,0.04,-272.74,-272.75,-43,566,-954,24.9,4.2,-19.4,25.2,4.2,-19.1,5.73,2.43,-23.4,30.2
2012-11-10 01:25:00,0.0,1.9106,0.0009,400.19,0.19,208.6,23.8,138.04,31.42,24.65,36.42,0.04,-272.75,-272.75,-43,566,-955,24.9,4.2,-19.4,25.1,4.3,-19.1,5.73,2.43,-23.4,30.1
2012-11-10 01:26:00,0.0,1.9096,0.0008,399.99,0.23,215.2,31.6,138.05,31.42,24.65,36.43,0.04,-272.75,-272.75,-43,567,-954,24.9,4.2,-19.5,25.1,4.2,-19.2,5.73,2.44,-23.5,30.1
2012-11-10 01:27:00,0.0,1.9097,0.0012,400.00,0.22,204.3,31.3,138.05,31.42,24.65,36.43,0.04,-272.75,-272.75,-43,567,-954,24.9,4.2,-19.5,25.1,4.2,-19.2,5.73,2.45,-23.5,30.1
2012-11-10 01:28:00,0.0,1.9102,0.0009,400.03,0.21,208.7,28.8,138.05,31.42,24.65,36.43,0.04,-272.75,-272.75,-43,567,-954,24.9,4.1,-19.5,25.1,4.2,-19.3,5.73,2.45,-23.5,30.1
2012-11-10 01:29:00,0.0,1.9101,0.0008,400.08,0.19,204.2,32.7,138.05,31.42,24.66,36.42,0.04,-272.74,-272.75,-43,567,-954,24.9,4.1,-19.5,25.1,4.2,-19.3,5.73,2.46,-23.5,30.1
2012-11-10 01:30:00,0.0,1.9101,0.0011,400.13,0.21,201.9,26.5,138.06,31.41,24.66,36.42,0.04,-272.75,-272.75,-43,566,-954,24.9,4.1,-19.6,25.1,4.2,-19.3,5.73,2.46,-23.6,30.0
2012-11-10 01:31:00,0.0,1.9098,0.0009,400.04,0.19,201.3,26.4,138.06,31.41,24.65,36.42,0.04,-272.75,-272.75,-43,566,-954,24.9,4.1,-19.8,25.1,4.1,-19.5,5.73,2.45,-23.6,30.0
2012-11-10 01:32:00,0.0,1.9097,0.0009,399.97,0.17,201.5,28.7,138.06,31.40,24.66,36.42,0.04,-272.75,-272.74,-43,567,-954,24.8,4.0,-19.8,25.1,4.1,-19.6,5.73,2.44,-23.7,30.0
2012-11-10 01:33:00,0.0,1.9094,0.0010,400.02,0.24,216.2,32.4,138.06,31.39,24.65,36.42,0.04,-272.74,-272.75,-43,567,-954,24.9,4.1,-19.7,25.1,4.1,-19.5,5.73,2.43,-23.7,30.0
2012-11-10 01:34:00,0.0,1.9096,0.0009,399.84,0.20,207.7,30.5,138.06,31.39,24.65,36.43,0.04,-272.75,-272.75,-43,567,-954,24.9,4.1,-19.8,25.1,4.1,-19.5,5.73,2.42,-23.7,29.9
2012-11-10 01:35:00,0.0,1.9094,0.0011,399.92,0.20,195.5,29.7,138.06,31.38,24.65,36.43,0.04,-272.75,-272.75,-43,567,-955,24.8,4.1,-19.8,25.1,4.1,-19.5,5.73,2.43,-23.8,29.9
2012-11-10 01:36:00,0.0,1.9092,0.0009,400.04,0.21,206.1,25.8,138.06,31.38,24.65,36.42,0.04,-272.74,-272.75,-43,567,-954,24.8,4.1,-19.8,25.1,4.1,-19.5,5.73,2.43,-23.8,29.9
2012-11-10 01:37:00,0.0,1.9092,0.0009,399.85,0.22,195.4,29.6,138.06,31.38,24.65,36.43,0.04,-272.75,-272.75,-43,567,-954,24.8,4.1,-19.8,25.1,4.1,-19.6,5.73,2.44,-23.8,30.0
2012-11-10 01:38:00,0.0,1.9092,0.0008,399.85,0.29,194.8,28.1,138.05,31.38,24.65,36.43,0.04,-272.74,-272.75,-43,566,-954,24.8,4.1,-19.8,25.1,4.1,-19.6,5.73,2.45,-23.7,30.0
2012-11-10 01:39:00,0.0,1.9090,0.0009,399.76,0.20,202.4,33.1,138.05,31.38,24.66,36.44,0.04,-272.75,-272.75,-43,566,-954,24.8,4.1,-19.7,25.1,4.1,-19.5,5.73,2.44,-23.7,30.0
2012-11-10 01:40:00,0.0,1.9094,0.0010,399.97,0.25,203.8,30.8,138.05,31.39,24.65,36.43,0.04,-272.75,-272.75,-43,566,-954,24.9,4.1,-19.6,25.1,4.2,-19.4,5.73,2.45,-23.6,30.1
2012-11-10 01:41:00,0.0,1.9094,0.0010,399.95,0.23,210.3,31.3,138.05,31.39,24.65,36.43,0.04,-272.75,-272.75,-43,567,-954,24.9,4.1,-19.7,25.1,4.2,-19.4,5.73,2.44,-23.6,30.1
2012-11-10 01:42:00,0.0,1.9098,0.0008,400.04,0.19,205.5,32.4,138.05,31.40,24.65,36.42,0.04,-272.74,-272.75,-43,566,-954,24.9,4.1,-19.7,25.1,4.1,-19.4,5.73,2.44,-23.6,30.1
2012-11-10 01:43:00,0.0,1.9100,0.0010,400.01,0.23,204.7,25.1,138.05,31.41,24.65,36.42,0.04,-272.75,-272.75,-43,567,-954,24.9,4.1,-19.7,25.1,4.1,-19.4,5.73,2.42,-23.5,30.1
2012-11-10 01:44:00,0.0,1.9104,0.0010,400.06,0.23,210.9,33.2,138.04,31.42,24.65,36.43,0.04,-272.75,-272.75,-43,567,-954,24.9,4.1,-19.7,25.1,4.1,-19.4,5.73,2.43,-23.5,30.1
2012-11-10 01:45:00,0.0,1.9103,0.0009,400.03,0.17,205.4,25.7,138.05,31.42,24.65,36.43,0.04,-272.75,-272.75,-43,566,-954,24.9,4.1,-19.6,25.1,4.2,-19.3,5.73,2.43,-23.6,30.1
2012-11-10 01:46:00,0.0,1.9101,0.0010,400.03,0.22,209.7,35.0,138.05,31.42,24.66,36.43,0.04,-272.75,-272.75,-43,567,-954,24.9,4.1,-19.5,25.1,4.2,-19.3,5.73,2.43,-23.6,30.1
2012-11-10 01:47:00,0.0,1.9107,0.0010,400.01,0.21,200.1,31.5,138.05,31.42,24.65,36.43,0.04,-272.75,-272.75,-43,567,-954,24.9,4.1,-19.6,25.1,4.2,-19.3,5.73,2.43,-23.6,30.0
2012-11-10 01:48:00,0.0,1.9106,0.0008,399.99,0.29,193.4,31.5,138.05,31.42,24.66,36.43,0.04,-272.75,-272.75,-43,567,-954,24.8,4.1,-19.6,25.1,4.2,-19.3,5.73,2.42,-23.6,30.0
2012-11-10 01:49:00,0.0,1.9108,0.0008,399.96,0.17,202.2,29.4,138.05,31.41,24.65,36.43,0.04,-272.74,-272.75,-43,567,-955,24.8,4.2,-19.6,25.1,4.2,-19.3,5.73,2.42,-23.7,30.0
2012-11-10 01:50:00,0.0,1.9105,0.0008,399.98,0.19,202.7,31.8,138.06,31.41,24.65,36.43,0.04,-272.75,-272.75,-43,567,-954,24.8,4.1,-19.6,25.1,4.2,-19.3,5.73,2.41,-23.7,30.0
2012-11-10 01:51:00,0.0,1.9107,0.0008,400.01,0.20,193.6,29.3,138.06,31.40,24.65,36.42,0.04,-272.75,-272.75,-43,567,-954,24.8,4.1,-19.6,25.1,4.2,-19.3,5.73,2.41,-23.7,30.0
2012-11-10 01:52:00,0.0,1.9109,0.0010,399.97,0.20,201.7,31.5,138.06,31.39,24.66,36.42,0.04,-272.75,-272.75,-43,566,-954,24.8,4.2,-19.6,25.1,4.2,-19.3,5.73,2.42,-23.7,29.9
2012-11-10 01:53:00,0.0,1.9103,0.0010,399.90,0.21,198.4,31.3,138.06,31.39,24.66,36.43,0.04,-272.75,-272.75,-43,567,-954,24.8,4.1,-19.6,25.0,4.2,-19.3,5.73,2.43,-23.8,29.9
2012-11-10 01:54:00,0.0,1.9097,0.0010,399.87,0.22,204.4,26.9,138.06,31.38,24.66,36.42,0.04,-272.75,-272.75,-43,567,-954,24.8,4.1,-19.6,25.0,4.2,-19.3,5.73,2.44,-23.8,29.9
2012-11-10 01:55:00,0.0,1.9093,0.0010,399.91,0.21,203.5,28.5,138.06,31.37,24.65,36.42,0.04,-272.75,-272.75,-43,566,-954,24.8,4.1,-19.6,25.0,4.2,-19.3,5.73,2.45,-23.8,29.8
2012-11-10 01:56:00,0.0,1.9102,0.0009,399.91,0.21,204.8,28.1,138.06,31.37,24.65,36.42,0.04,-272.75,-272.75,-43,567,-954,24.8,4.1,-19.6,25.0,4.2,-19.4,5.73,2.46,-23.8,29.8
2012-11-10 01:57:00,0.0,1.9096,0.0007,399.95,0.23,199.8,32.3,138.06,31.37,24.65,36.42,0.04,-272.75,-272.75,-43,566,-954,24.7,4.1,-19.7,25.0,4.2,-19.4,5.73,2.45,-23.8,29.8
2012-11-10 01:58:00,0.0,1.9095,0.0009,399.91,0.21,196.3,33.3,138.06,31.36,24.66,36.42,0.04,-272.75,-272.75,-43,567,-954,24.7,4.1,-19.8,25.0,4.2,-19.4,5.73,2.45,-23.9,29.8
2012-11-10 01:59:00,0.0,1.9103,0.0010,399.91,0.23,196.2,30.4,138.06,31.36,24.65,36.42,0.04,-272.74,-272.75,-43,566,-954,24.7,4.1,-19.8,25.0,4.1,-19.5,5.73,2.44,-23.9,29.9
2012-11-10 02:00:00,0.0,1.9099,0.0009,399.95,0.23,193.3,26.0,138.06,31.37,24.65,36.42,0.04,-272.75,-272.75,-43,566,-954,24.7,4.1,-19.8,25.0,4.1,-19.5,5.73,2.43,-23.8,29.9
2012-11-10 02:01:00,0.0,1.9097,0.0009,399.89,0.22,191.9,30.1,138.05,31.37,24.66,36.43,0.04,-272.75,-272.75,-43,566,-954,24.7,4.1,-19.9,25.0,4.1,-19.6,5.73,2.43,-23.8,29.9
2012-11-10 02:02:00,0.0,1.9101,0.0010,399.93,0.21,194.2,24.3,138.05,31.37,24.66,36.43,0.04,-272.75,-272.75,-43,566,-954,24.8,4.1,-19.9,25.0,4.1,-19.6,5.73,2.42,-23.7,30.0
2012-11-10 02:03:00,0.0,1.9104,0.0010,399.93,0.19,203.6,31.2,138.05,31.38,24.65,36.43,0.04,-272.75,-272.75,-43,566,-954,24.8,4.1,-19.8,25.1,4.1,-19.5,5.73,2.42,-23.7,30.0
2012-11-10 02:04:00,0.0,1.9103,0.0009,399.90,0.19,198.0,34.7,138.05,31.38,24.65,36.43,0.04,-272.75,-272.75,-43,566,-954,24.8,4.1,-19.8,25.1,4.1,-19.5,5.73,2.42,-23.6,30.1
2012-11-10 02:05:00,0.0,1.9109,0.0010,399.94,0.20,206.4,34.6,138.05,31.39,24.65,36.43,0.04,-272.75,-272.75,-43,566,-954,24.9,4.1,-19.7,25.1,4.1,-19.4,5.73,2.42,-23.5,30.1
2012-11-10 02:06:00,0.0,1.9097,0.0010,400.03,0.21,211.4,29.6,138.04,31.39,24.66,36.43,0.04,-272.74,-272.75,-43,566,-954,24.9,4.1,-19.7,25.2,4.1,-19.4,5.73,2.43,-23.5,30.2
2012-11-10 02:07:00,0.0,1.9103,0.0010,399.99,0.22,216.1,33.6,138.04,31.40,24.65,36.43,0.04,-272.75,-272.75,-43,566,-954,24.9,4.1,-19.8,25.2,4.1,-19.4,5.73,2.44,-23.4,30.2
2012-11-10 02:08:00,0.0,1.9104,0.0007,400.10,0.21,211.6,29.9,138.04,31.41,24.65,36.42,0.04,-272.75,-272.75,-43,566,-954,25.0,4.1,-19.7,25.2,4.1,-19.4,5.73,2.44,-23.4,30.2
2012-11-10 02:09:00,0.0,1.9102,0.0011,400.12,0.23,223.8,36.1,138.04,31.42,24.65,36.42,0.04,-272.75,-272.75,-43,566,-954,25.0,4.1,-19.6,25.2,4.1,-19.3,5.73,2.43,-23.4,30.2
2012-11-10 02:10:00,0.0,1.9090,0.0011,400.01,0.14,215.1,28.5,138.04,31.42,24.66,36.43,0.04,-272.75,-272.75,-43,566,-954,25.0,4.1,-19.6,25.2,4.1,-19.3,5.73,2.43,-23.4,30.2
2012-11-10 02:11:00,0.0,1.9096,0.0010,400.05,0.20,210.3,32.6,138.05,31.43,24.65,36.43,0.04,-272.75,-272.75,-43,567,-954,25.0,4.1,-19.7,25.2,4.1,-19.4,5.73,2.42,-23.5,30.1
2012-11-10 02:12:00,0.0,1.9086,0.0011,400.10,0.24,211.6,30.6,138.05,31.43,24.66,36.42,0.04,-272.75,-272.75,-43,567,-954,25.0,4.0,-19.8,25.2,4.1,-19.5,5.73,2.42,-23.5,30.1
2012-11-10 02:13:00,0.0,1.9093,0.0010,400.05,0.19,212.4,30.8,138.05,31.43,24.65,36.43,0.04,-272.75,-272.75,-43,567,-954,25.0,4.0,-19.8,25.2,4.1,-19.5,5.73,2.43,-23.5,30.1
2012-11-10 02:14:00,0.0,1.9093,0.0009,400.07,0.21,203.9,29.8,138.06,31.42,24.66,36.43,0.04,-272.74,-272.75,-43,567,-954,24.9,4.0,-19.9,25.2,4.1,-19.6,5.73,2.44,-23.5,30.1
2012-11-10 02:15:00,0.0,1.9093,0.0009,400.03,0.18,203.0,28.5,138.06,31.42,24.65,36.42,0.04,-272.75,-272.75,-43,567,-954,24.9,4.0,-19.9,25.2,4.0,-19.6,5.73,2.45,-23.6,30.1
2012-11-10 02:16:00,0.0,1.9086,0.0010,400.04,0.21,207.8,29.4,138.06,31.41,24.66,36.42,0.04,-272.75,-272.74,-43,567,-954,24.9,4.0,-19.8,25.2,4.1,-19.6,5.73,2.45,-23.6,30.1